Location: ?????????
(41.2286°N, 23.0068°E)
Time: 00:53:42
(UTC+00:00)

SL-08 RB Rocket - Pass Details

Date: 08 November 2025
Orbit: 632 x 667 km, 97.8° (Epoch: 07 December)

Event Time Altitude Azimuth Distance (km) Brightness Sun altitude
Rises 03:09:36 0° 6° (N) 3,008 7.1 -22.4°
Reaches altitude 10° 03:11:53 10° 2° (N) 2,087 6.2 -22.0°
Enters shadow 03:15:29 44° 321° (NW) 912 4.1 -21.3°
